CPA811 KBOS-VHHH

Flight info

Callsign CPA811
Flight time N/A
Altitude 33000
Route LBSTA8 LBSTA DCT QUBIS DCT LOPVI/M085F330 DCT CLAVY DCT 69N050W 73N040W 78N020W/M085F350 80N000E/N0497F350 80N020E 80N030E DCT PIREL/K0926F350 N611 DOSON R705 RIVAS/K0926F370 R705 BRT G490 SERNA/K0919S1130 Y520 NONAR/K0906S1190 Y520 POLHO/K0898S1160 G218 TMR/K0889S1190 B458 DADGA/K0900S1160 W37 KILUD/K0898S1220 W37 GUSIV/K0907S1190 W37 PEXID/K0906S1220 W37 OMBEB/K0911S1190 R473 NNX/K0911S1220 R473 WYN W18 NLG W23 ZUH R473 SIERA
Aircraft A35K/H-SDE2E3GHIJ3J4J5LM1ORWXY/LB1D1

Departure

Time 2026-05-05 01:15
Airport Boston Logan International Airport (KBOS)

Arrival

Time N/A
Airport Hong Kong International Airport (VHHH)
Time Latitude Longitude Altitude Speed Heading
2026-05-05 00:46 42.37144 -71.02002 31 ft 0 kts 211°
2026-05-05 01:01 42.37159 -71.01989 31 ft 4 kts 211°
2026-05-05 01:01 42.37181 -71.01971 31 ft 2 kts 211°
2026-05-05 01:01 42.37199 -71.01953 31 ft 4 kts 237°
2026-05-05 01:01 42.37205 -71.01923 31 ft 4 kts 293°
2026-05-05 01:02 42.37192 -71.01894 31 ft 4 kts 303°
2026-05-05 01:02 42.37182 -71.01873 31 ft 0 kts 303°
2026-05-05 01:07 42.37188 -71.01885 -59 ft 5 kts 304°
2026-05-05 01:07 42.37219 -71.01919 106 ft 6 kts 335°
2026-05-05 01:07 42.37262 -71.01912 31 ft 8 kts 24°
2026-05-05 01:07 42.37290 -71.01845 31 ft 9 kts 93°
2026-05-05 01:08 42.37259 -71.01777 31 ft 9 kts 128°
2026-05-05 01:08 42.37216 -71.01717 31 ft 9 kts 136°
2026-05-05 01:08 42.37166 -71.01651 31 ft 13 kts 136°
2026-05-05 01:08 42.37086 -71.01545 31 ft 19 kts 135°
2026-05-05 01:09 42.36989 -71.01415 31 ft 20 kts 135°
2026-05-05 01:09 42.36920 -71.01265 31 ft 18 kts 87°
2026-05-05 01:09 42.36980 -71.01122 31 ft 18 kts 40°
2026-05-05 01:09 42.37089 -71.01044 31 ft 18 kts 25°
2026-05-05 01:10 42.37200 -71.00972 31 ft 18 kts 26°
2026-05-05 01:10 42.37311 -71.00904 31 ft 18 kts 22°
2026-05-05 01:10 42.37426 -71.00847 31 ft 18 kts 19°
2026-05-05 01:10 42.37542 -71.00791 31 ft 18 kts 19°
2026-05-05 01:11 42.37657 -71.00734 31 ft 18 kts 20°
2026-05-05 01:11 42.37773 -71.00679 31 ft 18 kts 20°
2026-05-05 01:11 42.37832 -71.00562 31 ft 16 kts 102°
2026-05-05 01:11 42.37764 -71.00490 31 ft 13 kts 193°
2026-05-05 01:12 42.37730 -71.00506 31 ft 0 kts 199°
2026-05-05 01:14 42.37725 -71.00508 31 ft 10 kts 199°
2026-05-05 01:14 42.37462 -71.00634 33 ft 67 kts 199°
2026-05-05 01:15 42.36860 -71.00924 31 ft 116 kts 199°
2026-05-05 01:15 42.35972 -71.01373 33 ft 157 kts 201°
2026-05-05 01:15 42.34922 -71.01902 390 ft 159 kts 200°
2026-05-05 01:15 42.33889 -71.02373 752 ft 158 kts 198°
2026-05-05 01:16 42.32788 -71.02372 1016 ft 162 kts 160°
2026-05-05 01:16 42.31957 -71.01357 1225 ft 170 kts 110°
2026-05-05 01:16 42.31673 -70.99807 1405 ft 179 kts 103°
2026-05-05 01:16 42.31277 -70.98154 1568 ft 193 kts 113°
2026-05-05 01:17 42.30987 -70.96316 1722 ft 209 kts 90°
2026-05-05 01:17 42.31212 -70.94323 1930 ft 224 kts 76°
2026-05-05 01:17 42.31591 -70.92241 2204 ft 235 kts 77°
2026-05-05 01:17 42.31965 -70.90063 2460 ft 249 kts 78°
2026-05-05 01:18 42.32343 -70.87714 2777 ft 260 kts 78°
2026-05-05 01:18 42.32716 -70.85315 3267 ft 263 kts 78°
2026-05-05 01:18 42.33089 -70.82868 3764 ft 266 kts 79°
2026-05-05 01:18 42.33458 -70.80418 4244 ft 270 kts 79°
2026-05-05 01:19 42.33897 -70.77918 4720 ft 273 kts 71°
2026-05-05 01:19 42.34870 -70.75724 5165 ft 276 kts 44°
2026-05-05 01:19 42.36494 -70.74363 5636 ft 277 kts 19°
2026-05-05 01:19 42.38328 -70.73564 6121 ft 279 kts 16°
2026-05-05 01:20 42.40184 -70.72823 6604 ft 282 kts 16°
2026-05-05 01:20 42.42094 -70.72046 7095 ft 284 kts 17°
2026-05-05 01:20 42.43969 -70.71272 7572 ft 287 kts 17°
2026-05-05 01:20 42.45890 -70.70505 8052 ft 289 kts 13°
2026-05-05 01:21 42.47862 -70.69915 8534 ft 291 kts 11°
2026-05-05 01:21 42.49859 -70.69362 9003 ft 294 kts 11°
2026-05-05 01:21 42.51867 -70.68791 9459 ft 296 kts 12°
2026-05-05 01:21 42.53888 -70.68202 9903 ft 299 kts 12°
2026-05-05 01:22 42.55927 -70.67598 10297 ft 303 kts 12°
2026-05-05 01:22 42.58030 -70.66972 10495 ft 314 kts 12°
2026-05-05 01:22 42.60200 -70.66322 10678 ft 325 kts 12°
2026-05-05 01:22 42.62447 -70.65647 10858 ft 336 kts 12°
2026-05-05 01:23 42.64764 -70.64950 11034 ft 346 kts 12°
2026-05-05 01:23 42.67144 -70.64233 11202 ft 355 kts 12°
2026-05-05 01:23 42.69588 -70.63546 11361 ft 364 kts
2026-05-05 01:23 42.72075 -70.63016 11519 ft 371 kts
2026-05-05 01:24 42.74653 -70.62485 11668 ft 378 kts
2026-05-05 01:24 42.77283 -70.61928 11809 ft 385 kts
2026-05-05 01:24 42.79935 -70.61202 11927 ft 392 kts 15°
2026-05-05 01:24 42.82538 -70.60058 12053 ft 397 kts 19°
2026-05-05 01:25 42.85113 -70.58723 12171 ft 402 kts 21°
2026-05-05 01:25 42.87725 -70.57265 12296 ft 406 kts 22°
2026-05-05 01:25 42.90357 -70.55760 12469 ft 409 kts 22°
2026-05-05 01:25 42.92983 -70.54259 12658 ft 411 kts 22°
2026-05-05 01:26 42.95627 -70.52762 12843 ft 412 kts 22°
2026-05-05 01:26 42.98260 -70.51285 13027 ft 414 kts 22°
2026-05-05 01:26 43.00934 -70.49795 13207 ft 415 kts 22°
2026-05-05 01:26 43.03613 -70.48308 13381 ft 417 kts 22°
2026-05-05 01:27 43.06295 -70.46822 13554 ft 418 kts 22°
2026-05-05 01:27 43.09005 -70.45318 13722 ft 419 kts 22°
2026-05-05 01:27 43.11713 -70.43814 13884 ft 420 kts 22°
2026-05-05 01:27 43.14395 -70.42323 14038 ft 422 kts 22°
2026-05-05 01:28 43.17140 -70.40795 14193 ft 423 kts 22°
2026-05-05 01:28 43.19868 -70.39273 14347 ft 424 kts 22°
2026-05-05 01:28 43.22569 -70.37766 14493 ft 425 kts 22°
2026-05-05 01:28 43.25310 -70.36234 14636 ft 426 kts 22°
2026-05-05 01:29 43.28061 -70.34695 14776 ft 427 kts 22°
2026-05-05 01:29 43.30801 -70.33162 14910 ft 428 kts 22°
2026-05-05 01:29 43.33583 -70.31602 15040 ft 429 kts 22°
2026-05-05 01:29 43.36343 -70.30054 15165 ft 430 kts 22°
2026-05-05 01:30 43.39117 -70.28497 15292 ft 431 kts 22°
2026-05-05 01:30 43.41893 -70.26936 15411 ft 432 kts 22°
2026-05-05 01:30 43.44682 -70.25367 15528 ft 433 kts 22°
2026-05-05 01:30 43.47429 -70.23820 15642 ft 434 kts 22°
2026-05-05 01:31 43.50233 -70.22240 15755 ft 435 kts 22°
2026-05-05 01:31 43.53027 -70.20663 15865 ft 435 kts 22°
2026-05-05 01:31 43.55834 -70.19078 15973 ft 436 kts 22°
2026-05-05 01:31 43.58642 -70.17490 16076 ft 437 kts 22°
2026-05-05 01:32 43.61458 -70.15896 16183 ft 438 kts 22°
2026-05-05 01:32 43.64284 -70.14295 16287 ft 439 kts 22°
2026-05-05 01:32 43.67108 -70.12693 16391 ft 439 kts 22°
2026-05-05 01:32 43.69940 -70.11085 16498 ft 440 kts 22°
2026-05-05 01:33 43.72775 -70.09474 16603 ft 441 kts 22°
2026-05-05 01:33 43.75565 -70.07887 16703 ft 442 kts 22°
2026-05-05 01:33 43.78420 -70.06261 16809 ft 443 kts 22°